Regional Weather Roundup
Issued by NWS

Home | Current Version | Previous Version | Graphics & Text | Print | Product List | Glossary On
Versions: 1 2 3 4 5 6 7 8 9 10 11 12 13 14 15 16 17 18 19 20 21 22 23 24 25 26 27 28 29 30 31 32 33 34 35 36 37 38 39 40 41 42 43 44 45 46 47 48 49 50
000
ASUS43 KMKX 240910
RWRWI

WISCONSIN REGIONAL WEATHER ROUNDUP
NATIONAL WEATHER SERVICE MILWAUKEE/SULLIVAN WI
400 AM CDT TUE APR 24 2018

NOTE: "FAIR" INDICATES FEW OR NO CLOUDS BELOW 12,000 FEET WITH NO
SIGNIFICANT WEATHER AND/OR OBSTRUCTIONS TO VISIBILITY.

WIZ001-002-006>008-014>016-023>028-241000-
NORTHWEST WISCONSIN

CITY           SKY/WX    TMP DP  RH WIND       PRES   REMARKS
SUPERIOR ARPT  FAIR      36  32  85 N5        30.15S WCI  32
ASHLAND        FAIR      37  29  72 CALM      30.14R
HAYWARD        FAIR      31  27  85 CALM      30.12F
SIREN          FAIR      34  29  82 CALM      30.12F
CUMBERLAND     FAIR      34  30  86 CALM      30.13R
RICE LAKE      FAIR      33  32  96 CALM      30.14S
CHETEK         FAIR      33  32  96 CALM      30.13R
LADYSMITH      FAIR      34  30  84 CALM      30.13F
EAU CLAIRE     FAIR      37  32  82 CALM      30.10F
MENOMONIE      FAIR      39  35  84 W3        30.12S
NEW RICHMOND   FAIR      37  33  85 CALM      30.13S
OSCEOLA        FAIR      36  33  89 CALM      30.15S
$$

WIZ003>005-009-010-017-018-241000-
NORTH CENTRAL WISCONSIN

CITY           SKY/WX    TMP DP  RH WIND       PRES   REMARKS
MANITOWISH WTR FAIR      29  27  92 CALM      30.11F
ARBOR VITAE    FAIR      34  28  79 CALM      30.11F
WOODRUFF       FAIR      34  28  79 CALM      30.11F
RHINELANDER    FAIR      33  26  75 CALM      30.12S
EAGLE RIVER    FAIR      29  24  82 CALM      30.11S
LAND O LAKES   FAIR      28  25  87 CALM      30.13S
PHILLIPS       FAIR      31  28  88 CALM      30.11F
TOMAHAWK       FAIR      29  24  84 CALM      30.12F
MEDFORD        FAIR      33  29  86 CALM      30.11F
MERRILL        FAIR      30  27  89 CALM      30.12S
$$

WIZ029-030-035-036-043>047-241000-
CENTRAL WISCONSIN

CITY           SKY/WX    TMP DP  RH WIND       PRES   REMARKS
WAUSAU         FAIR      35  27  72 CALM      30.10S
MOSINEE        FAIR      36  27  69 N3        30.12F
MARSHFIELD     FAIR      39  30  70 CALM      30.10S
STEVENS POINT  FAIR      29  24  82 CALM      30.12S
WAUPACA        FAIR      36  29  77 CALM      30.12S
WAUTOMA        FAIR      33  29  85 CALM      30.12S
WISC RAPIDS    FAIR      34  27  75 CALM      30.12S
CAMP DOUGLAS   FAIR      29  28  95 CALM      30.10F
$$

WIZ011>013-019>022-031-037>040-048>050-241000-
NORTHEAST WISCONSIN

CITY           SKY/WX    TMP DP  RH WIND       PRES   REMARKS
ANTIGO         FAIR      34  28  80 CALM      30.11F
SHAWANO        FAIR      33  29  86 CALM      30.11S
OCONTO         FAIR      31  29  94 CALM      30.11S
STURGEON BAY   FAIR      42  27  55 NW7       30.11F
GREEN BAY      FAIR      39  34  82 CALM      30.11S
MANITOWOC      FAIR      44  30  57 N7        30.09F
APPLETON       FAIR      43  28  56 NW7       30.09S
CLINTONVILLE   FAIR      34  28  77 CALM      30.11S
OSHKOSH        FAIR      43  33  68 NW6       30.10S
$$

WIZ032>034-041-042-053>061-241000-
SOUTHWEST WISCONSIN

CITY           SKY/WX    TMP DP  RH WIND       PRES   REMARKS
LA CROSSE      FAIR      44  34  67 SE3       30.11F
SPARTA         FAIR      30  26  86 CALM      30.12F
VIROQUA        FAIR      46  30  53 CALM      30.10F
BOSCOBEL       FAIR      35  31  85 CALM      30.12S
PRAIRIE DU CHI FAIR      38  31  75 CALM      30.11S
PLATTEVILLE    FAIR      42  32  66 NE6       30.10S
$$

WIZ056-057-062-063-064-067-068-241000-
SOUTH CENTRAL WISCONSIN

CITY           SKY/WX    TMP DP  RH WIND       PRES   REMARKS
REEDSBURG      FAIR      35  35  97 CALM      30.10F
BARABOO/DELLS  FAIR      35  29  82 CALM      30.10S
LONE ROCK      FAIR      35  32  88 CALM      30.11S
MINERAL POINT  FAIR      48  30  49 NE3       30.09S
MADISON        FAIR      41  33  73 N3        30.09S
MIDDLETON      FAIR      37  34  87 CALM      30.10S
WATERTOWN      FAIR      44  33  66 CALM      30.08S
MONROE         FAIR      48  28  46 NE5       30.07F
JANESVILLE     FAIR      43  36  75 CALM      30.07F
$$

WIZ051-052-058>065-066-070>072-241000-
SOUTHEAST WISCONSIN

CITY           SKY/WX    TMP DP  RH WIND       PRES   REMARKS
MILWAUKEE      CLOUDY    49  31  49 CALM      30.08R
WAUKESHA       FAIR      45  30  57 CALM      30.08S
MILWAUKEE/TIMM MOCLDY    45  28  53 CALM      30.08S
RACINE         CLOUDY    44  32  62 NE3       30.09S
BURLINGTON     FAIR      46  31  55 N3        30.07S
KENOSHA        CLOUDY    47  32  56 NE3       30.07S
FOND DU LAC    FAIR      41  31  67 NW5       30.09S
SHEBOYGAN      FAIR      44  34  67 N5        30.07S
WEST BEND      FAIR      45  30  57 CALM      30.07S
JUNEAU         FAIR      43  32  66 CALM      30.09S
$$

LSZ147-162-241000-
LAKE SUPERIOR

STATION/POSITION TIME  TEMP    WIND        PRES    WAVE
                       AIR SEA DIR/SP/G            HT/PER
                 (UTC) (F)     (DEG/KT/KT) (MB)    (FT/S)
DEVILS ISLAND    0900   44      50/ 13/ 13 1021.2R
SAXON HARBOR     0840   34     180/  1/  2 1019.6R
$$

LMZ867-665-643>646-241000-
LAKE MICHIGAN

STATION/POSITION TIME  TEMP    WIND        PRES    WAVE
                       AIR SEA DIR/SP/G            HT/PER
                 (UTC) (F)     (DEG/KT/KT) (MB)    (FT/S)
NORTHPORT PIER   0840   39                 1019.6S
KEWAUNEE LAKESHO 0842   44     290/  5/  6 1018.3F
SHEBOYGAN LAKESH 0900   49     350/ 13/ 14 1018.3F
PORT WASHINGTON  0830   46     310/  2/  4 1019.3S
MILWAUKEE LAKESH 0850   44      90/  7/  7   N/A
KENOSHA   LAKESH 0900   42                 1018.3
$$

TC  - TEMPERATURE IN CELSIUS
VSB - VISIBILITY IN STATUTE MILES
WCI - WIND CHILL INDEX
HX  - HEAT INDEX




USA.gov is the U.S. government's official web portal to all federal, state and local government web resources and services.